CAPE
2 0 0 0 0 7 0 0 0 0 0 0 0 0 0 0 0 0 0 0 0 0 0 0 0 0 0 0 0 7 16 0 0 0 1 2 1 1 1 10 12 9 5 0
1 0 0 0 0 0 0 1 0 0 0 0 0 0 0 0 0 0 0 0 0 0 0 0 0 0 0 0 0 17 34 23 32 22 7 9 2 8 16 22 16 30 28 2
6 0 3 0 0 0 0 0 0 0 0 0 0 0 0 0 0 0 0 0 0 0 0 0 0 0 0 0 0 9 27 33 59 69 52 50 30 27 76 44 71 44 33 19
16 9 0 0 0 0 0 0 0 0 0 0 0 0 0 0 0 0 0 0 0 0 0 0 0 0 0 0 2 0 10 32 69 88 64 61 36 76 89 92 102 90 60 41
0 7 0 0 0 0 0 0 0 0 0 0 0 0 0 0 0 0 0 0 0 0 0 0 0 0 0 0 0 0 0 10 63 106 100 99 131 120 124 105 148 130 115 71
0 0 0 0 0 0 0 0 0 0 0 0 0 0 0 0 0 0 0 0 0 0 0 0 0 0 0 0 0 0 0 6 28 69 102 93 155 154 152 174 157 165 156 134
0 0 0 0 0 0 0 0 0 0 0 0 0 0 0 0 0 0 0 0 0 0 0 0 0 0 0 0 0 0 0 0 12 43 51 78 139 145 142 192 201 171 147 139
0 0 0 0 0 0 0 0 0 0 0 0 0 0 0 0 0 0 0 0 0 0 0 0 0 0 0 0 0 0 0 0 0 2 27 44 91 128 144 184 220 180 139 122
0 0 0 0 0 0 0 0 0 0 0 0 0 0 0 0 0 0 0 0 0 0 0 0 0 0 0 0 0 0 0 0 0 0 0 4 15 63 96 136 198 157 118 121
0 0 0 0 0 0 0 0 0 0 0 0 0 0 0 0 0 0 0 0 0 0 0 0 0 0 0 0 0 0 0 0 0 0 0 0 0 0 42 48 68 66 64 66
0 0 0 0 0 0 0 0 0 0 0 0 0 0 0 0 0 0 0 0 0 0 0 0 0 0 0 0 0 0 0 0 0 0 0 0 0 0 2 1 5 10 11 24
0 0 0 0 0 0 0 0 0 0 0 0 0 0 0 0 0 0 0 0 0 0 0 0 0 0 0 0 0 0 0 0 0 0 0 0 0 0 0 0 1 2 3 2
0 0 0 0 0 0 0 0 0 0 0 0 0 0 0 0 0 0 0 0 0 0 0 0 0 0 0 0 0 0 0 0 0 0 0 0 0 0 0 0 0 0 0 0
0 0 0 0 0 0 0 0 0 0 0 0 0 0 0 0 0 0 0 0 0 0 0 0 0 0 0 0 0 0 0 0 0 0 0 0 0 0 0 0 0 0 0 0
0 0 0 0 0 0 0 0 0 0 0 0 0 0 0 0 0 0 0 0 0 0 0 0 0 0 0 0 0 0 0 0 0 0 0 0 0 0 0 0 0 0 0 0
0 0 0 0 0 0 0 0 0 0 0 0 0 0 0 0 0 0 0 0 0 0 0 0 0 0 0 0 0 0 0 0 0 0 0 0 0 0 0 0 0 0 0 0
0 0 0 0 0 0 0 0 0 0 0 0 0 0 0 0 0 0 0 0 0 0 0 0 0 0 0 0 0 0 0 0 0 0 0 0 0 0 0 0 0 0 0 0
0 0 0 0 0 0 0 0 0 0 0 0 0 0 0 0 0 0 0 0 0 0 0 0 0 0 0 0 0 0 0 0 0 0 0 0 0 0 0 0 0 0 0 0
0 0 0 0 0 0 0 0 0 0 0 0 0 0 0 0 0 0 0 0 0 0 0 0 0 0 0 0 0 0 0 0 0 0 0 0 0 0 0 0 0 0 0 1
0 0 0 0 0 0 0 0 0 0 0 0 0 0 0 0 0 0 0 0 0 0 0 0 0 0 0 0 0 0 0 0 0 0 0 0 0 0 0 0 0 0 1 0
0 0 0 0 0 0 0 0 0 0 0 0 0 0 0 0 0 0 0 0 0 0 0 0 0 0 0 0 0 0 0 0 0 0 0 0 0 0 0 0 0 0 0 1
0 0 0 1 0 0 0 0 0 0 0 0 0 0 0 0 0 0 0 0 0 0 0 0 0 0 0 0 0 0 0 0 0 0 0 0 0 0 0 0 0 1 1 0
0 0 0 0 0 0 0 0 0 0 0 0 0 0 0 0 0 0 0 0 0 0 0 0 0 0 0 0 0 0 0 0 0 0 0 0 0 0 0 0 0 0 1 0
0 0 0 0 0 0 0 0 0 0 0 0 0 0 0 0 0 0 0 0 0 0 0 0 0 0 0 0 0 0 0 0 0 0 0 0 0 0 0 1 2 0 0 1
0 0 0 0 0 0 0 0 0 0 0 0 0 0 0 0 0 0 0 0 0 0 0 0 0 0 0 0 0 1 0 0 0 0 0 0 0 0 0 0 0 0 1 0
0 0 0 0 0 0 0 0 0 0 0 0 0 0 0 0 0 0 0 0 0 0 0 0 0 0 0 0 0 0 0 0 1 0 1 1 0 1 1 0 1 0 1 1
CIN
0 0 0 0 0 -2 0 -2 0 0 0 0 0 0 0 0 0 0 0 0 0 0 0 0 0 0 0 0 0 -327 -293 0 0 0 -0 -0 -0 0 -221 -408 -389 -380 -0 0
-0 0 0 0 0 0 -1 -1 0 0 0 0 0 0 0 0 0 0 0 0 0 0 0 0 0 0 0 0 0 -405 -332 -297 -324 -347 -372 -414 -17 -491 -445 -377 -346 -322 -355 -235
0 0 -2 0 0 0 0 0 0 0 0 0 0 0 0 0 0 0 0 0 0 0 0 0 0 0 0 0 0 -475 -362 -312 -291 -305 -317 -336 -393 -440 -350 -349 -318 -332 -353 -395
-1 -2 0 0 0 0 0 0 0 0 0 0 0 0 0 0 0 0 0 0 0 0 0 0 0 0 0 0 -110 -100 -407 -356 -300 -262 -308 -357 -420 -349 -329 -280 -246 -248 -301 -340
0 -1 0 0 0 0 0 0 0 0 0 0 0 0 0 0 0 0 0 0 0 0 0 0 0 0 0 0 0 0 0 -365 -319 -277 -309 -304 -298 -271 -230 -258 -207 -190 -192 -217
0 0 0 0 0 0 0 0 0 0 0 0 0 0 0 0 0 0 0 0 0 0 0 0 0 0 0 0 0 0 0 -402 -354 -305 -261 -280 -238 -220 -197 -188 -189 -160 -150 -188
0 0 0 0 0 0 0 0 0 0 0 0 0 0 0 0 0 0 0 0 0 0 0 0 0 0 0 0 0 0 0 0 -450 -384 -353 -291 -248 -235 -224 -193 -172 -162 -175 -185
0 0 0 0 0 0 0 0 0 0 0 0 0 0 0 0 0 0 0 0 0 0 0 0 0 0 0 0 0 0 0 0 0 -93 -455 -395 -316 -256 -247 -207 -163 -160 -188 -245
0 0 0 0 0 0 0 0 0 0 0 0 0 0 0 0 0 0 0 0 0 0 0 0 0 0 0 0 0 0 0 0 0 0 0 -495 -495 -376 -323 -272 -210 -216 -238 -237
0 0 0 0 0 0 0 0 0 0 0 0 0 0 0 0 0 0 0 0 0 0 0 0 0 0 0 0 0 0 0 0 0 0 0 0 0 -44 -422 -370 -374 -353 -323 -326
0 0 0 0 0 0 0 0 0 0 0 0 0 0 0 0 0 0 0 0 0 0 0 0 0 0 0 0 0 0 0 0 0 0 0 0 0 0 -0 -1 -555 -522 -457 -390
0 0 0 0 0 0 0 0 0 0 0 0 0 0 0 0 0 0 0 0 0 0 0 0 0 0 0 0 0 0 0 0 0 0 0 0 0 -0 -2 -0 -4 -2 -29 -19
0 0 0 0 0 0 0 0 0 0 0 0 0 0 0 0 0 0 0 0 0 0 0 0 0 0 0 0 0 0 0 0 0 0 0 0 0 0 0 0 0 -1 0 0
0 0 0 0 0 0 0 0 0 0 0 0 0 0 0 0 0 0 0 0 0 0 0 0 0 0 0 0 0 0 0 0 0 0 0 0 0 0 0 0 0 0 0 0
0 0 0 0 0 0 0 0 0 0 0 0 0 0 0 0 0 0 0 0 0 0 0 0 0 0 0 0 0 0 0 0 0 0 0 0 0 0 0 0 0 0 0 0
0 0 0 0 0 0 0 0 0 0 0 0 0 0 0 0 0 0 0 0 0 0 0 0 0 0 0 0 0 0 0 0 0 0 0 0 0 0 0 0 0 0 0 0
0 0 0 0 0 0 0 0 0 0 0 0 0 0 0 0 0 0 0 0 0 0 0 0 0 0 0 0 0 0 0 0 0 0 0 0 0 0 0 0 0 0 0 0
0 0 0 0 0 0 0 0 0 0 0 0 0 0 0 0 0 0 0 0 0 0 0 0 0 0 0 0 0 0 0 0 0 0 0 0 0 0 0 0 0 0 0 0
0 0 0 0 0 0 0 0 0 0 0 0 0 0 0 0 0 0 0 0 0 0 0 0 0 0 0 0 0 0 0 0 0 0 0 0 0 0 0 0 0 0 0 0
0 0 0 0 0 0 0 0 0 0 0 0 0 0 0 0 0 0 0 0 0 0 0 0 0 0 0 0 0 0 0 0 0 0 0 0 0 0 0 0 0 0 0 0
0 0 0 0 0 0 0 0 0 0 0 0 0 0 0 0 0 0 0 0 0 0 0 0 0 0 0 0 0 0 0 0 0 0 0 0 0 0 0 0 0 0 0 0
0 0 0 -1 0 0 0 0 0 0 0 0 0 0 0 0 0 0 0 0 0 0 0 0 0 0 0 0 0 0 0 0 0 0 0 0 0 0 0 0 0 0 0 0
0 0 0 0 0 0 0 0 0 0 0 0 0 0 0 0 0 0 0 0 0 0 0 0 0 0 0 0 0 0 0 0 0 0 0 0 0 0 0 0 0 0 0 0
0 0 0 0 0 0 0 0 0 0 0 0 0 0 0 0 0 0 0 0 0 0 0 0 0 0 0 0 0 0 0 0 0 0 0 0 0 0 0 0 0 0 0 0
0 0 0 0 0 0 0 0 0 0 0 0 0 0 0 0 0 0 0 0 0 0 0 0 0 0 0 0 0 0 0 0 0 0 0 0 0 0 0 0 0 0 0 0
0 0 0 0 0 0 0 0 0 0 0 0 0 0 0 0 0 0 0 0 0 0 0 0 0 0 0 0 0 0 0 0 0 0 0 0 0 0 0 0 0 0 0 0
Wind_Speed
34 40 44 37 37 36 31 33 30 29 23 27 33 37 35 33 28 29 27 26 24 24 21 16 15 14 13 11 10 10 10 10 9 9 10 11 11 10 8 8 7 7 7 6
32 43 36 34 34 34 33 33 35 29 24 28 33 38 36 35 37 27 26 24 21 20 21 16 14 14 14 13 13 12 12 11 11 10 10 10 10 9 9 9 10 8 8 7
39 36 30 29 31 34 35 35 32 33 27 31 35 44 41 38 40 33 21 17 17 15 15 17 18 15 14 15 14 14 14 13 12 11 10 10 11 12 12 12 12 10 9 8
43 35 34 33 35 31 38 31 30 31 33 37 26 41 33 25 27 24 13 13 14 15 15 15 15 16 17 16 16 16 16 16 15 13 13 13 14 15 14 14 13 12 10 10
39 35 34 39 38 32 37 26 29 29 34 38 38 38 35 31 29 29 20 12 16 17 17 17 16 17 18 15 15 21 22 19 17 16 16 16 16 17 17 16 14 12 12 11
34 33 34 37 32 29 21 21 23 27 32 46 43 43 44 39 30 29 27 19 14 15 17 15 14 14 15 15 15 15 19 22 20 19 19 18 18 18 18 16 14 13 11 11
39 37 33 31 30 27 26 25 32 36 37 42 29 36 49 27 26 23 24 24 20 11 15 16 15 15 14 14 15 15 16 21 21 20 21 20 20 19 18 17 15 15 14 13
46 45 36 33 33 34 34 31 33 39 39 39 32 43 39 29 30 28 25 21 21 19 17 18 18 16 16 16 15 16 18 18 25 22 21 21 21 21 19 17 15 16 15 14
50 46 37 34 32 28 35 40 30 31 30 37 37 38 38 30 24 23 23 24 23 18 16 16 17 18 17 16 16 17 19 20 24 28 25 23 22 20 20 18 17 17 15 15
42 49 37 33 28 33 34 27 36 33 40 43 39 41 39 23 22 20 22 23 24 23 20 16 14 14 14 14 13 15 16 18 21 25 26 25 23 21 20 17 18 19 18 16
36 40 41 32 43 41 33 37 35 32 33 39 41 36 25 26 17 16 23 25 24 27 23 19 16 15 14 14 13 12 12 12 15 19 22 22 21 21 20 18 18 18 18 15
32 33 45 47 31 33 36 37 36 38 39 37 34 39 24 17 13 16 20 20 20 19 17 15 15 15 16 15 14 12 11 9 12 14 17 18 17 18 17 16 17 16 16 16
32 34 39 39 40 34 42 39 39 38 32 39 40 38 25 19 18 19 23 21 19 17 15 14 14 15 15 14 13 12 10 10 11 11 13 14 15 16 16 15 15 14 15 15
32 32 40 51 49 34 42 40 38 39 42 40 42 33 25 21 24 25 24 21 18 17 15 14 14 16 17 16 15 13 12 10 9 10 11 13 14 14 15 15 15 15 16 15
37 39 34 33 30 30 36 38 37 40 45 43 52 40 37 31 25 24 22 20 20 20 19 16 16 17 17 17 15 13 12 11 11 11 11 13 15 16 16 17 16 16 16 15
36 41 34 34 31 29 33 35 36 39 43 44 51 48 31 26 30 36 35 32 30 27 24 22 24 23 21 18 16 15 15 15 14 14 15 16 17 17 18 18 19 18 17 16
40 39 41 45 31 30 39 36 35 38 39 38 46 40 37 40 41 40 38 35 36 35 33 33 30 28 24 21 19 18 19 18 17 18 18 18 19 20 20 20 19 19 18 16
40 41 37 41 34 46 44 36 37 38 39 37 46 49 42 41 41 40 39 41 40 37 39 37 33 27 23 21 21 21 21 21 21 22 23 23 23 22 21 21 20 19 18 16
35 37 35 40 44 41 46 36 33 36 44 44 46 54 53 47 44 48 38 39 42 42 39 38 34 32 29 27 25 24 25 25 26 27 27 26 26 24 23 22 20 19 16 15
40 39 41 37 42 48 38 35 25 30 51 40 51 56 48 38 45 50 38 41 44 44 42 38 36 34 32 31 28 29 30 28 30 31 30 28 26 24 24 22 21 19 17 16
38 39 44 40 39 44 32 21 13 30 31 21 23 29 30 32 41 38 33 33 33 36 38 39 37 37 35 32 31 31 28 30 31 31 31 30 28 25 23 21 21 20 19 16
39 37 40 39 46 56 25 22 32 32 29 22 19 22 25 28 32 31 29 29 30 32 34 33 33 32 32 33 33 33 34 33 32 33 31 30 28 25 22 21 20 19 17 17
42 38 37 38 39 23 25 32 32 32 31 30 30 28 24 23 25 26 27 26 26 27 27 27 26 26 27 29 30 32 33 33 32 30 29 27 24 22 21 21 18 18 18 18
36 34 34 33 39 38 26 26 25 27 25 25 25 24 23 25 23 21 21 23 25 26 25 25 22 23 24 26 27 27 30 28 25 25 24 21 21 20 18 17 17 18 18 19
32 29 37 39 34 32 37 33 30 28 25 22 21 23 23 22 21 19 19 20 22 23 23 21 20 19 19 20 22 23 25 25 22 21 22 20 19 17 16 17 18 18 18 18
30 33 37 40 32 37 32 35 32 30 26 24 22 21 21 18 19 17 19 18 17 18 19 18 17 17 19 19 20 22 23 22 21 21 20 18 17 16 17 17 18 20 21 21
Wind_Direction
234 231 230 228 238 247 253 252 255 259 270 267 265 263 265 266 273 273 273 272 268 268 271 267 259 256 254 245 228 223 224 229 239 246 258 269 278 287 287 291 291 296 296 291
230 230 234 235 239 246 252 249 251 260 270 269 269 265 267 267 264 276 275 271 268 267 269 264 256 251 248 245 241 230 231 231 228 248 256 267 276 280 288 291 293 286 290 290
231 235 231 229 234 241 246 248 254 258 269 272 272 264 268 269 260 272 275 268 263 247 251 258 259 247 244 240 234 235 238 240 238 244 261 269 282 284 288 286 288 286 285 288
235 241 232 234 238 240 245 254 258 261 265 263 272 263 271 281 276 278 241 235 228 224 234 239 232 230 241 241 247 245 247 248 249 246 255 257 266 278 281 289 290 291 282 284
235 234 229 236 239 240 250 255 257 263 262 264 262 267 271 274 278 281 279 253 224 220 221 219 216 211 208 220 230 259 261 258 254 250 250 263 268 281 288 288 290 287 289 283
241 240 237 241 242 239 247 250 256 262 265 258 260 260 262 266 281 283 283 283 252 231 230 239 239 235 231 226 228 236 254 262 261 259 258 261 271 276 284 284 286 290 287 289
236 236 238 241 230 235 239 235 250 254 255 258 268 263 255 280 280 288 289 289 288 263 234 239 248 250 244 241 237 241 240 257 262 261 264 264 267 272 275 280 280 285 289 291
231 235 233 235 228 240 235 235 248 253 256 263 267 262 268 280 280 281 285 293 298 295 288 270 265 261 254 246 241 237 239 244 266 264 263 268 269 273 275 277 279 280 283 287
232 240 231 232 241 233 234 240 251 260 267 264 264 271 276 282 281 282 285 290 293 296 293 290 278 269 268 265 258 249 257 260 268 269 269 270 271 270 274 278 278 280 284 290
240 237 237 238 242 241 240 237 244 254 257 260 265 266 269 288 284 284 291 291 293 297 289 287 285 287 281 278 273 269 263 258 267 270 271 273 273 274 276 278 279 280 285 287
244 243 240 239 238 236 237 234 247 252 258 260 263 271 286 281 291 293 298 297 295 297 290 284 285 286 289 292 291 287 276 268 269 271 272 274 276 278 277 278 280 282 286 288
235 246 240 237 248 249 240 245 241 248 253 259 269 271 296 291 293 307 310 312 312 312 302 289 291 287 284 292 292 293 293 285 282 279 278 278 279 279 280 280 284 285 285 291
225 243 239 238 246 250 239 240 238 250 261 257 259 268 279 284 280 291 306 313 317 323 317 302 296 291 287 290 293 294 293 293 292 289 285 284 283 284 283 285 286 286 287 289
224 242 243 240 247 245 240 237 242 242 251 257 255 265 269 281 285 292 299 304 313 316 320 315 303 293 288 288 289 292 292 293 292 290 290 290 290 291 293 293 291 290 291 290
229 239 246 254 252 247 242 239 241 241 249 253 259 260 263 274 284 290 298 303 302 302 307 313 310 301 294 289 286 285 286 286 287 288 290 292 295 297 299 299 298 296 294 292
232 236 243 250 252 250 246 242 242 244 247 255 260 265 271 276 278 277 282 285 285 287 292 301 302 297 294 289 284 282 282 283 284 286 290 293 295 298 299 299 299 298 297 295
224 232 237 245 252 252 251 239 239 249 248 246 257 259 269 271 272 276 279 280 279 279 283 290 293 294 289 283 282 281 282 283 281 285 289 292 294 296 297 297 297 296 294 294
225 231 235 245 246 250 259 252 252 252 255 249 257 262 267 272 274 274 275 276 279 280 281 284 287 291 290 284 280 281 282 279 278 282 286 289 292 294 295 295 296 295 293 290
229 231 241 242 245 261 260 256 247 251 257 259 262 261 264 272 276 271 275 276 277 280 282 282 283 283 283 281 279 279 282 280 276 281 284 289 291 293 293 293 293 293 290 286
233 234 237 243 245 251 268 256 259 259 268 263 260 262 269 271 270 270 277 277 276 277 280 280 281 283 282 283 280 276 276 276 275 279 284 288 291 289 290 290 290 291 288 284
227 230 232 241 248 256 260 254 236 249 271 278 271 274 272 265 267 281 286 285 286 286 284 283 283 282 282 282 282 277 274 274 279 282 285 287 288 286 284 283 286 286 286 286
227 227 236 240 247 256 258 240 233 264 265 287 292 293 285 280 278 285 290 289 289 291 292 290 287 286 285 283 281 281 281 284 285 285 285 285 285 282 279 277 278 279 281 283
237 234 237 238 246 273 257 254 258 269 274 272 280 288 289 284 284 289 290 292 296 300 300 301 298 295 295 293 289 284 286 288 288 288 288 288 286 281 277 275 274 276 278 281
240 236 247 250 250 251 265 267 269 269 278 279 280 281 286 286 290 290 290 294 298 302 306 309 309 304 302 301 299 296 293 292 293 293 293 292 288 285 281 279 277 278 279 281
242 239 242 250 257 258 254 256 267 276 278 281 285 284 285 289 291 291 294 300 303 307 311 315 316 319 321 319 314 309 302 300 300 300 297 296 295 291 287 286 285 284 284 282
244 244 242 251 257 257 263 264 266 267 269 272 276 283 290 291 286 287 293 302 310 312 311 318 326 331 330 330 326 318 315 312 309 305 305 307 305 301 295 293 294 297 295 291